Location: Chuathbaluk
(61.5726°N, 159.2454°W)
Time: 14:04:38
(UTC+00:00)

ZACube-1 - Pass Details

Date: 17 January 2021
Orbit: 583 x 666 km, 97.6° (Epoch: 01 March)

Event Time Altitude Azimuth Distance (km) Brightness Sun altitude
Rises 17:06:21 0° 15° (NNE) 3,018 ? -15.8°
Reaches altitude 10° 17:08:39 10° 10° (N) 2,105 ? -15.5°
Maximum altitude 17:13:01 44° 299° (WNW) 929 ? -15.0°
Drops below altitude 10° 17:17:22 10° 228° (SW) 2,092 ? -14.5°
Sets 17:19:39 0° 222° (SW) 2,996 ? -14.3°
